User: anonymous
Location: UBC Liquid-Mirror Observatory
(49.2876°N, 122.5728°W)
Time: 12:35:58
(UTC-07:00)
Language:

Cosmos 1315 - Orbit

View from above orbital plane
View from above orbital plane
View from above satellite
View from above satellite

Ground track
Ground track

The orbit data is extracted from the following two-line orbital elements,

1 12903U 81103A   14259.78292252  .00023624  00000-0  40686-3 0  2667
2 12903 081.1340 037.2554 0003953 322.1596 174.5148 15.50923697804490
Epoch (UTC): 16 September 2014 18:47:24
Eccentricity: 0.0003953
inclination: 81.1340°
perigee height: 411 km
apogee height: 417 km
right ascension of ascending node: 37.2554°
argument of perigee: 322.1596°
revolutions per day: 15.50923697
mean anomaly at epoch: 174.5148°
orbit number at epoch: 80449

The dashed part of the orbit path shows where the satellite is in the earth's shadow,  

DLR